Prescott, AZ

2:04 AM MST on December 10, 2019 (GMT -0700)
Love

Weather History for KPRC - October, 2019

Change the Weather History Date:

Thursday, October 24, 2019

  Actual Average Record
Temperature  
Mean Temperature 50 °F 54 °F  
Max Temperature 63 °F 69 °F 88 °F (1959)
Min Temperature 37 °F 39 °F 23 °F (1975)
Degree Days  
Heating Degree Days 15    
Month to date heating degree days 171  
Since 1 July heating degree days 198  
Cooling Degree Days 0    
Month to date cooling degree days 0  
Year to date cooling degree days 1130  
Moisture  
Dew Point 8 °F    
Average Humidity 19    
Maximum Humidity 40    
Minimum Humidity 9    
Precipitation  
Precipitation 0.00 in 0.02 in 0.61 in (1992)
Month to date precipitation 0.00 0.72  
Year to date precipitation 10.29 11.89  
Sea Level Pressure  
Sea Level Pressure 30.10 in    
Wind  
Wind Speed 7 mph ()    
Max Wind Speed 23 mph    
Max Gust Speed 28 mph    
Visibility 8.6 miles    
Events      
T = Trace of Precipitation, MM = Missing Value Source: Averaged Metar Reports

Daily Weather History Graph

Daily Weather History Graph

Search for Another Location

Airport or City:

Astronomy

Oct. 24, 2019 Rise Set
Actual Time 6:42 AM MST 5:44 PM MST
Civil Twilight 6:17 AM MST 6:10 PM MST
Nautical Twilight 5:47 AM MST 6:39 PM MST
Astronomical Twilight 5:18 AM MST 7:08 PM MST
Moon 2:32 AM MST (10/24) 4:01 PM MST (10/24)
Length of Visible Light 11h 52m
Length of Day
11h 01m
Waning Crescent, 16% of the Moon is Illuminated
Oct 24
Waning Crescent
Oct 27
New
Nov 4
First Quarter
Nov 12
Full
Nov 19
Last Quarter

Hourly Weather History & Observations

Time (MST) Temp. Windchill Dew Point Humidity Pressure Visibility Wind Dir Wind Speed Gust Speed Precip Events Conditions
12:53 AM 45.0 °F 42.6 °F 18.0 °F 34% 29.96 in 10.0 mi South 4.6 mph - N/A   Clear
1:53 AM 42.1 °F 39.2 °F 19.0 °F 40% 29.98 in 10.0 mi SW 4.6 mph - N/A   Clear
2:53 AM 48.0 °F - 12.0 °F 24% 29.96 in 10.0 mi West 5.8 mph - N/A   Clear
3:53 AM 48.0 °F - 10.0 °F 22% 29.97 in 10.0 mi West 4.6 mph - N/A   Clear
4:53 AM 46.9 °F - 10.0 °F 22% 30.00 in 10.0 mi West 8.1 mph - N/A   Clear
5:53 AM 46.9 °F - 10.0 °F 22% 30.03 in 10.0 mi West 11.5 mph - N/A   Clear
6:53 AM 45.0 °F 40.6 °F 12.0 °F 26% 30.07 in 10.0 mi WNW 8.1 mph - N/A   Clear
7:53 AM 48.9 °F - 12.0 °F 23% 30.11 in 10.0 mi NW 10.4 mph - N/A   Clear
8:53 AM 53.1 °F - 10.9 °F 19% 30.12 in 10.0 mi North 10.4 mph - N/A   Clear
9:53 AM 57.0 °F - 10.0 °F 15% 30.14 in 10.0 mi NNE 19.6 mph 24.2 mph N/A   Clear
10:53 AM 59.0 °F - 10.0 °F 14% 30.14 in 10.0 mi NNE 13.8 mph 21.9 mph N/A   Clear
11:53 AM 60.1 °F - 9.0 °F 13% 30.14 in 10.0 mi NNE 18.4 mph 25.3 mph N/A   Partly Cloudy
12:53 PM 60.1 °F - 6.1 °F 12% 30.11 in 7.0 mi NE 11.5 mph - N/A   Smoke
1:53 PM 61.0 °F - 3.9 °F 10% 30.12 in 4.0 mi ENE 8.1 mph - N/A   Smoke
2:53 PM 62.1 °F - 3.0 °F 9% 30.10 in 4.0 mi North 10.4 mph - N/A   Smoke
3:53 PM 61.0 °F - 3.0 °F 10% 30.09 in 4.0 mi NE 6.9 mph - N/A   Smoke
4:53 PM 59.0 °F - 1.9 °F 10% 30.10 in 8.0 mi NE 6.9 mph - N/A   Smoke
5:53 PM 54.0 °F - 1.0 °F 12% 30.12 in 6.0 mi NE 5.8 mph - N/A   Smoke
6:53 PM 53.1 °F - 1.0 °F 12% 30.16 in 10.0 mi East 4.6 mph - N/A   Smoke
7:53 PM 48.0 °F - 1.9 °F 15% 30.19 in 10.0 mi North 3.5 mph - N/A   Smoke
8:53 PM 44.1 °F - 6.1 °F 21% 30.18 in 3.0 mi Calm Calm - N/A   Smoke
9:53 PM 42.1 °F - 8.1 °F 25% 30.19 in 10.0 mi Calm Calm - N/A   Smoke
10:53 PM 41.0 °F - 10.0 °F 28% 30.20 in 10.0 mi Calm Calm - N/A   Smoke
11:53 PM 37.9 °F 33.5 °F 8.1 °F 29% 30.22 in 10.0 mi South 5.8 mph - N/A   Smoke